User: anonymous   Login
Location: Bishop's University Astronomical Observatory
(45.3661°N, 71.8475°W)
Time: 15:42:16
(UTC-04:00)
Language:

Meteor 2-5 Rocket - Orbit

View from above orbital plane
View from above orbital plane
View from above satellite
View from above satellite

Ground track
Ground track

The orbit data is extracted from the following two-line orbital elements,

1 11608U 79095B   16119.88705064 +.00000029 +00000-0 +10525-4 0  9990
2 11608 081.2137 253.0307 0053658 246.1598 113.3941 14.06094162871609
Epoch (UTC): 28 April 2016 21:17:21
Eccentricity: 0.0053658
inclination: 81.2137°
perigee height: 834 km
apogee height: 911 km
right ascension of ascending node: 253.0307°
argument of perigee: 246.1598°
revolutions per day: 14.06094162
mean anomaly at epoch: 113.3941°
orbit number at epoch: 87160

The dashed part of the orbit path shows where the satellite is in the earth's shadow,  

DLR